[[{"header":{"parameterUnit":"m.s-1","parameterCategory":1,"la1":30.2991,"la2":30.254,"lo1":-89.0895,"lo2":-89.0444,"dy":0.0017,"dx":0.0017,"nx":28,"ny":28,"refTime":"2024-07-24T21:00:00:Z","depth":0,"parameterNumber":2,"parameterNumberName":"U-component_of_WINDS"},"data":[0,0,0,0,0,0,0,0,0,0,0,0,0,0,0,0,0,0,0,0,0,0,0,0,0,0,0,0,0,0,0,0,0,0,0,0,0,0,0,0,0,0,0,0,0,0,0,0,0,0,0,0,0,0,0,0,0,0,2.416,2.4162,0,2.4276,2.4278,2.4279,2.4255,2.4252,2.425,2.4248,2.4368,2.4373,2.4378,0,0,0,0,0,0,0,0,0,0,0,0,0,2.3916,2.3921,2.416,2.4162,2.4163,2.4276,2.4278,2.4279,2.4255,2.4252,2.425,2.4247,2.4367,2.4373,2.4379,0,0,0,0,0,0,0,0,0,0,0,0,0,2.4027,2.3923,2.416,2.4164,2.4166,2.4276,2.4278,2.428,2.4256,2.4252,2.4249,2.4246,2.4364,2.4372,2.438,2.4493,0,0,2.4404,2.4407,0,0,0,0,0,0,0,0,2.402,2.4035,2.4162,2.4164,2.4166,2.4248,2.4236,2.4351,2.4256,2.4222,2.4248,2.4244,2.4331,2.4341,2.437,2.4498,2.4503,2.4404,2.4409,2.4412,2.4415,0,0,0,0,0,0,0,2.4013,2.403,2.4206,2.4164,2.4167,2.4161,2.4173,2.4258,2.4293,2.4224,2.4223,2.4237,2.4331,2.4363,2.4373,2.4505,2.4404,2.4411,2.4416,2.4419,2.4729,2.4733,0,0,0,0,0,0,2.4003,2.4024,2.4202,2.421,2.4084,2.4168,2.4181,2.4225,2.4292,2.4299,2.424,2.4235,2.4351,2.4364,2.4377,2.4512,2.4412,2.442,2.4424,2.4726,2.473,2.4734,0,0,0,0,0,0,2.3998,2.4019,2.4198,2.4117,2.4139,2.4175,2.4225,2.4229,2.426,2.4303,2.431,2.4265,2.4349,2.4366,2.4463,2.4516,2.4423,2.443,2.4722,2.4727,2.4732,2.4783,0,0,0,0,0,0,2.3991,2.4018,2.4061,2.4118,2.4143,2.4283,2.4228,2.4233,2.4274,2.4269,2.4329,2.4336,2.4348,2.4452,2.4471,2.4525,2.4436,2.4717,2.4724,2.473,2.4777,2.479,2.4801,0,0,0,0,0,2.3983,2.4072,2.4064,2.4085,2.4198,2.4286,2.43,2.4312,2.4278,2.4322,2.4349,2.4334,2.4507,2.4462,2.4484,2.454,2.4714,2.4722,2.473,2.4772,2.4787,2.48,0,0,0,0,0,0,2.4021,2.4079,2.4071,2.4181,2.4229,2.4282,2.4337,2.4328,2.4387,2.438,2.4392,2.4406,2.4505,2.4532,2.4481,2.4652,2.4605,2.4618,2.463,2.4645,2.4657,2.4647,2.4443,0,0,0,0,0,2.4043,2.4109,2.4156,2.4248,2.4273,2.4301,2.4339,2.4344,2.4394,2.4414,2.4449,2.4498,2.4563,2.4606,2.4668,2.4781,2.4793,2.4831,2.4842,2.4852,2.4862,2.4922,2.4939,2.476,2.476,2.476,0,0,2.4087,2.4127,2.4168,2.4257,2.4295,2.4362,2.4318,2.4392,2.4442,2.4425,2.4519,2.4546,2.4602,2.4707,2.4755,2.4733,2.4914,2.4862,2.4869,2.4875,2.4932,2.4949,2.4964,2.4766,2.4765,2.4764,0,0,2.4203,2.4241,2.4321,2.4359,2.4416,2.4433,2.4453,2.4507,2.4524,2.4618,2.4606,2.4666,2.4778,2.4818,2.4853,2.4981,2.4969,2.5001,2.5062,2.512,2.5134,2.5147,2.5191,2.5207,2.5012,2.5012,2.5012,0,2.4252,2.4353,2.4363,2.4438,2.4477,2.4464,2.4544,2.4581,2.4655,2.4682,2.4656,2.4796,2.4833,2.4946,2.4977,2.5006,2.5027,2.4994,2.5132,2.5144,2.5156,2.5198,2.5215,2.5016,2.5015,2.5015,2.5015,0,2.4409,2.448,2.4538,2.4609,2.4654,2.4732,2.4753,2.4797,2.4798,2.4818,2.4913,2.4956,2.5026,2.5054,2.5055,2.5167,2.5151,2.5129,2.5082,2.5176,2.5216,2.5232,2.5021,2.5019,2.5018,2.5017,0,0,2.4553,2.4628,2.4649,2.468,2.4741,2.4795,2.4872,2.4939,2.4977,2.5028,2.5092,2.5186,2.5165,2.5205,2.521,2.5261,2.5358,2.5232,2.5234,2.5253,2.5481,2.5497,2.5516,2.5351,2.5354,2.5356,2.5476,0,2.4674,2.4808,2.4818,2.4938,2.5003,2.499,2.5057,2.5101,2.5122,2.5179,2.5202,2.5268,2.5236,2.5259,2.531,2.5336,2.5404,2.5328,2.5409,2.5411,2.5394,2.5537,2.5554,2.5665,2.5492,2.5495,2.5497,0,2.4832,2.4887,2.5013,2.5063,2.5091,2.515,2.5212,2.5267,2.5316,2.5328,2.5371,2.5369,2.5446,2.5398,2.5504,2.5451,2.5485,2.5503,2.5507,2.5514,2.5459,2.5546,2.5701,2.5717,2.5522,2.552,2.5518,0,2.4922,2.5028,2.5117,2.5144,2.5205,2.5247,2.5274,2.532,2.5359,2.5414,2.5439,2.5502,2.5536,2.5584,2.5599,2.5562,2.5704,2.5657,2.5715,2.5714,2.5745,2.5742,2.5905,2.5769,2.5768,2.5768,2.5768,0,2.5055,2.5132,2.5158,2.5212,2.5298,2.5309,2.5394,2.5419,2.546,2.5518,2.5512,2.5567,2.5584,2.5642,2.5654,2.5739,2.5755,2.5766,2.5768,2.5766,2.5764,2.5787,2.5779,2.5773,2.5772,2.5771,2.577,0,2.517,2.5191,2.5286,2.5335,2.5349,2.541,2.5452,2.5504,2.5523,2.5598,2.5616,2.5646,2.5713,2.5733,2.5815,2.5823,2.5922,2.5918,2.5905,2.5905,2.5961,2.5954,2.6143,2.6168,2.6016,2.6018,2.6019,0,2.5253,2.5312,2.5367,2.5405,2.5434,2.5496,2.5536,2.5549,2.559,2.5649,2.5694,2.5761,2.5814,2.5923,2.5952,2.6014,2.601,2.6072,2.6019,2.6014,2.6009,2.6005,2.601,2.6081,2.6083,2.6084,2.6085,0,2.5397,2.5403,2.5461,2.5521,2.5568,2.5617,2.5663,2.5695,2.5714,2.5761,2.5829,2.5871,2.5953,2.6019,2.6081,2.6109,2.61,2.6102,2.6118,2.6116,2.6105,2.611,2.593,2.6097,2.6096,2.6095,2.6095,2.6094,2.5498,2.5549,2.5594,2.5658,2.5694,2.5737,2.5787,2.5812,2.5869,2.5937,2.5941,2.6015,2.6061,2.6143,2.6174,2.6231,2.6213,2.6237,2.6243,2.6249,2.6252,2.6097,2.6243,2.6243,2.6243,2.6242,2.6242,0,2.564,2.5668,2.5726,2.5791,2.584,2.5827,2.5877,2.5919,2.5984,2.6028,2.608,2.6158,2.6221,2.6254,2.6317,2.6356,2.6354,2.6372,2.6369,2.6375,2.6266,2.6245,2.6373,2.6373,2.6373,2.6373,2.6373,2.6373,2.572,2.5805,2.5816,2.5918,2.5946,2.6018,2.6047,2.6087,2.6121,2.6208,2.626,2.6281,2.632,2.6385,2.6442,2.645,2.6472,2.6493,2.6498,2.6396,2.6383,2.637,2.635,2.6498,2.6498,2.6602,2.6603,2.6604]},{"header":{"parameterUnit":"m.s-1","parameterCategory":1,"la1":30.2991,"la2":30.254,"lo1":-89.0895,"lo2":-89.0444,"dy":0.0017,"dx":0.0017,"nx":28,"ny":28,"refTime":"2024-07-24T21:00:00:Z","depth":0,"parameterNumber":3,"parameterNumberName":"V-component_of_WINDS"},"data":[0,0,0,0,0,0,0,0,0,0,0,0,0,0,0,0,0,0,0,0,0,0,0,0,0,0,0,0,0,0,0,0,0,0,0,0,0,0,0,0,0,0,0,0,0,0,0,0,0,0,0,0,0,0,0,0,0,0,0.2263,0.2264,0,0.2328,0.2328,0.2329,0.2329,0.2328,0.2327,0.2326,0.2393,0.2396,0.2398,0,0,0,0,0,0,0,0,0,0,0,0,0,0.2139,0.2141,0.2263,0.2264,0.2265,0.2328,0.2328,0.2329,0.2329,0.2328,0.2327,0.2326,0.2393,0.2396,0.2399,0,0,0,0,0,0,0,0,0,0,0,0,0,0.2197,0.2142,0.2263,0.2272,0.2274,0.2327,0.2329,0.233,0.2329,0.2328,0.2327,0.2326,0.2392,0.2395,0.2399,0.2448,0,0,0.2411,0.2412,0,0,0,0,0,0,0,0,0.2194,0.2202,0.227,0.2272,0.2273,0.2319,0.2309,0.2369,0.233,0.2308,0.2326,0.2325,0.237,0.2375,0.239,0.2451,0.2454,0.2411,0.2414,0.2415,0.2416,0,0,0,0,0,0,0,0.219,0.2199,0.2289,0.2271,0.2273,0.2273,0.228,0.2321,0.2345,0.231,0.231,0.2318,0.237,0.2386,0.2392,0.2455,0.2411,0.2414,0.2417,0.2418,0.2558,0.2559,0,0,0,0,0,0,0.2184,0.2196,0.2287,0.2291,0.223,0.2276,0.2284,0.2306,0.2345,0.235,0.2319,0.2317,0.2381,0.2387,0.2394,0.2453,0.2415,0.2419,0.2421,0.2557,0.2558,0.256,0,0,0,0,0,0,0.2181,0.2192,0.2284,0.2243,0.2255,0.228,0.2304,0.2308,0.2324,0.2351,0.2356,0.2331,0.238,0.2389,0.2434,0.2456,0.242,0.2424,0.2555,0.2557,0.2559,0.2573,0,0,0,0,0,0,0.2178,0.2191,0.221,0.2244,0.2257,0.2324,0.2305,0.231,0.233,0.2329,0.2364,0.2368,0.2379,0.2429,0.2438,0.246,0.2427,0.2553,0.2556,0.2558,0.2571,0.2575,0.2579,0,0,0,0,0,0.2173,0.2212,0.2211,0.2222,0.2282,0.2325,0.2333,0.2344,0.2332,0.2351,0.2369,0.2367,0.2451,0.2433,0.2444,0.2468,0.2552,0.2555,0.2558,0.2569,0.2575,0.2579,0,0,0,0,0,0,0.2182,0.2217,0.2216,0.2268,0.2293,0.2325,0.235,0.235,0.238,0.2378,0.2391,0.2399,0.2444,0.246,0.2439,0.2516,0.25,0.2506,0.2505,0.251,0.2514,0.251,0.243,0,0,0,0,0,0.219,0.2222,0.2251,0.2293,0.2306,0.2325,0.2345,0.2351,0.2378,0.239,0.241,0.2437,0.2469,0.249,0.2522,0.2572,0.258,0.2594,0.2598,0.2601,0.2606,0.2633,0.264,0.257,0.257,0.257,0,0,0.2207,0.223,0.2249,0.2295,0.2316,0.2349,0.2335,0.237,0.2395,0.2395,0.2439,0.2455,0.2485,0.2533,0.2556,0.2548,0.2627,0.2605,0.2608,0.2611,0.2637,0.2644,0.2649,0.2572,0.2572,0.2571,0,0,0.2254,0.2275,0.2312,0.2332,0.2363,0.2375,0.2384,0.2415,0.2426,0.247,0.247,0.2499,0.2555,0.2576,0.2594,0.2646,0.2646,0.2656,0.2679,0.2704,0.271,0.2715,0.2733,0.274,0.266,0.266,0.266,0,0.2271,0.2321,0.2331,0.2366,0.2386,0.2386,0.2423,0.2443,0.2482,0.2496,0.2487,0.2555,0.2576,0.2628,0.264,0.2655,0.2665,0.2653,0.2708,0.2713,0.2718,0.2736,0.2742,0.2661,0.2661,0.2661,0.2661,0,0.234,0.2374,0.24,0.2437,0.246,0.2496,0.2511,0.2532,0.2536,0.2549,0.2593,0.2617,0.2653,0.2665,0.267,0.2718,0.2712,0.2705,0.2689,0.2726,0.2742,0.2749,0.2663,0.2663,0.2662,0.2662,0,0,0.2397,0.2438,0.2447,0.2463,0.2496,0.2523,0.2558,0.2592,0.261,0.2636,0.2666,0.2711,0.2705,0.2725,0.2731,0.2754,0.2793,0.2744,0.2745,0.2753,0.2846,0.2852,0.286,0.2792,0.2793,0.2794,0.2844,0,0.2448,0.2511,0.252,0.2575,0.2606,0.2605,0.2636,0.2659,0.2671,0.2699,0.2712,0.2745,0.2734,0.2746,0.2768,0.2784,0.2812,0.278,0.282,0.2821,0.2813,0.2868,0.2875,0.292,0.285,0.2852,0.2852,0,0.2517,0.2544,0.2602,0.2629,0.2642,0.267,0.2701,0.2727,0.2752,0.276,0.2781,0.2784,0.282,0.2801,0.285,0.2827,0.2844,0.2854,0.2856,0.2861,0.284,0.2875,0.2935,0.2942,0.2863,0.2862,0.2861,0,0.2552,0.2604,0.2645,0.2659,0.2691,0.271,0.2724,0.2749,0.2768,0.2794,0.2807,0.2837,0.2854,0.2878,0.2888,0.2874,0.2936,0.2918,0.2943,0.2943,0.2957,0.2957,0.3022,0.2967,0.2967,0.2966,0.2966,0,0.2609,0.2644,0.2661,0.2686,0.2726,0.2735,0.2773,0.2787,0.2808,0.2835,0.2836,0.2862,0.2874,0.2902,0.291,0.2949,0.2956,0.2963,0.2965,0.2963,0.2962,0.2975,0.2972,0.2968,0.2968,0.2968,0.2967,0,0.2656,0.2669,0.2713,0.274,0.2747,0.2775,0.2797,0.2821,0.2832,0.2867,0.2875,0.2893,0.2925,0.2937,0.2977,0.2982,0.3027,0.3026,0.3018,0.3019,0.3043,0.304,0.3119,0.3129,0.3067,0.3067,0.3068,0,0.2692,0.2719,0.2748,0.2766,0.278,0.281,0.2829,0.2838,0.2858,0.2888,0.2908,0.294,0.2966,0.3016,0.3033,0.3062,0.3062,0.3087,0.3067,0.3064,0.3063,0.3061,0.3064,0.3092,0.3092,0.3093,0.3093,0,0.2754,0.2758,0.2786,0.2815,0.2837,0.2861,0.2884,0.2898,0.2911,0.2933,0.2965,0.2985,0.3024,0.3055,0.3085,0.3099,0.3098,0.3099,0.3106,0.3106,0.31,0.3103,0.3029,0.3098,0.3097,0.3097,0.3097,0.3097,0.2797,0.282,0.2843,0.2874,0.2891,0.2912,0.2936,0.2949,0.2976,0.3008,0.3011,0.3046,0.3069,0.3109,0.3124,0.315,0.3144,0.3154,0.3157,0.316,0.3161,0.3095,0.3156,0.3156,0.3156,0.3155,0.3155,0,0.2859,0.2873,0.29,0.2932,0.2955,0.2951,0.2975,0.2995,0.3025,0.3046,0.3071,0.3107,0.3137,0.3154,0.3183,0.3201,0.3201,0.3209,0.3208,0.3211,0.3166,0.3157,0.3208,0.3208,0.3208,0.3208,0.3208,0.3208,0.2894,0.2933,0.2939,0.2987,0.3001,0.3034,0.3049,0.3067,0.3084,0.3124,0.3149,0.3159,0.3179,0.3209,0.3235,0.324,0.325,0.3258,0.3262,0.322,0.3214,0.3209,0.3201,0.3261,0.3261,0.3305,0.3306,0.3306]}]]